376  
ASUS42 KTBW 242018  
RWRFL  
FLORIDA REGIONAL WEATHER ROUNDUP  
NATIONAL WEATHER SERVICE TAMPA BAY RUSKIN FL  
300 PM EST WED FEB 24 2021  
 
NOTE: "FAIR" INDICATES FEW OR NO CLOUDS BELOW 12,000 FEET WITH NO  
SIGNIFICANT WEATHER AND/OR S TO VISIBILITY
.  
 
FLZ001>010-012>015-112-114-115-242100-  
PANHANDLE FLORIDA  
 
CITY SKY/WX TMP DP RH WIND PRES REMARKS
 
PENSACOLA SUNNY 77 64 64 S12 30.13S  
PENSACOLA NAS MOSUNNY 68 52 56 S13 30.11F  
MILTON NAS MOSUNNY 73 45 36 S12 30.10F  
CRESTVIEW LGT RAIN 75 42 30 S9G21 30.11F  
DUKE FIELD FAIR 72 42 34 S12 30.10F  
VALPARAISO SUNNY 67 54 61 S12 30.12F  
MARY ESTHER SUNNY 68 56 64 S9 30.11F  
TRI COUNTY FAIR 76 36 23 S9 30.10F  
PANAMA CITY FAIR 67 48 50 S8 30.12F  
TYNDALL AFB SUNNY 67 45 45 S10 30.12F  
APALACHICOLA SUNNY 67 45 45 S8 30.14F  
 
STATION/POSITION SKY/WX TEMP WIND PRES WAVE SWELL
 
AIR SEA DIR/SP/G HT/PER HT/PER  
(F) (DEG/KT/KT) (MB) (FT/S) (FT/S)  
30.1N 87.6W 62 60 1020.2F 1/ 8 2/ 8  
28.8N 86.0W 67 68 120/ 10/ 14 1020.3F 2/ 3  
PANAMA CITY BEAC 63 61 160/ 9/ 10 1020.8F  
TOWER C 61 130/ 6/ 6 1020.9F  
28.5N 84.5W 100/ 6/ 6 1021.7F 1  
 

 
FLZ011-016>038-118-127-128-134-139-239-242100-  
NORTH FLORIDA  
 
CITY SKY/WX TMP DP RH WIND PRES REMARKS
 
MARIANNA SUNNY 74 37 26 VRB5 30.09F  
TALLAHASSEE SUNNY 74 37 26 VRB5 30.11F  
LIVE OAK SUNNY 75 37 25 VRB5 30.11F  
CROSS CITY SUNNY N/A N/A N/A S9 30.12F  
LAKE CITY FAIR 75 37 25 SW5G17 30.12S  
GAINESVILLE SUNNY 77 40 26 SW12 30.14F  
WILLISTON FAIR 77 43 29 S14 30.13F  
MAYPORT NAS MOSUNNY 70 50 49 S9 30.12F  
JACKSONVILLE MOSUNNY 77 50 38 W13 30.10F  
JAX NAS MOSUNNY 76 51 41 S10 30.11F  
JAX CECIL SUNNY 82 46 28 SW14 30.10F  
FERNANDINA BEA FAIR 69 45 41 SE13 30.12F  
ST AUGUSTINE SUNNY 70 48 45 SE9 30.14F  
PALM COAST SUNNY 73 52 46 E12 30.13F  
 
STATION/POSITION SKY/WX TEMP WIND PRES WAVE SWELL
 
AIR SEA DIR/SP/G HT/PER HT/PER  
(F) (DEG/KT/KT) (MB) (FT/S) (FT/S)  
SHELL POINT NOT AVBL  
KEATON BEACH 63 230/ 6/ 7 1020.9F  
CEDAR KEY 65 230/ 3/ 5 1021.0F  
FERNANDINA 72 60 130/ 9/ 12 1020.1F  
30.7N 81.3W 61 60 N/A 2/ 8  
MAYPORT 68 61 110/ 8/ 10 1020.4F  
31.4N 80.9W 60 59 160/ 4/ 4 1020.2F 2/ 8 2/ 8  
ST AUGUSTINE 63 62 110/ 8/ 8 1020.3F  
 

 
FLZ040-043>046-052-053-057-058-063-144-242100-  
INTERIOR CENTRAL FLORIDA  
 
CITY SKY/WX TMP DP RH WIND PRES REMARKS
 
OCALA SUNNY 78 47 33 VRB5 30.13F  
LEESBURG MOSUNNY 80 57 45 S6 30.12F  
SANFORD SUNNY 82 56 40 SW10 30.11F  
ORLANDO EXEC MOSUNNY 81 58 45 VRB7 30.11F  
ORLANDO INTL MOSUNNY 80 57 45 SW8 30.10F  
KISSIMMEE MOSUNNY 81 60 48 W6 30.11F  
WINTER HAVEN MOSUNNY 82 57 42 S7 30.11F  
LAKELAND PTSUNNY 81 61 50 W10 30.11F  
BARTOW MOSUNNY 81 57 44 SW9G17 30.10F  
SEBRING FAIR 83 62 48 W3 30.10F  
OKEECHOBEE MOSUNNY 81 63 54 CALM 30.10S  
 

 
FLZ041-047-054-059-064-141-147-242100-  
EAST CENTRAL FLORIDA  
 
CITY SKY/WX TMP DP RH WIND PRES REMARKS
 
ORMOND BEACH MOSUNNY 72 55 56 E8 30.13F  
DAYTONA BEACH MOSUNNY 73 54 51 E8 30.12F  
DELAND MOSUNNY 79 56 45 SW8 30.12F  
NEW SMYRNA BEA N/A 70 57 64 E7 30.12F  
JFK SPACE CTR MOSUNNY 77 60 55 SE13 30.11F  
TITUSVILLE PTSUNNY 81 61 50 SE12 30.13F  
CAPE CANAVERAL SUNNY 76 60 57 SE8 30.11F  
PATRICK AFB SUNNY 73 59 61 E8 30.12F  
MELBOURNE MOSUNNY 76 64 66 SE12 30.10F  
VERO BEACH MOSUNNY 77 63 61 SE16 30.12F  
FT PIERCE MOSUNNY 77 61 57 SE15G22 30.11F  
STUART PTSUNNY 77 63 61 E13 30.13F  
 
STATION/POSITION SKY/WX TEMP WIND PRES WAVE SWELL
 
AIR SEA DIR/SP/G HT/PER HT/PER  
(F) (DEG/KT/KT) (MB) (FT/S) (FT/S)  
28.5N 80.2W 71 69 130/ 4/ 4 1019.9F 2/ 8 2/ 8  
28.9N 78.5W 71 170/ 2/ 6 1021.7S 3/ 8 3/ 8  
TRIDENT PIER 72 67 70/ 7/ 9 1021.3F  
28.4N 80.5W 68 N/A 1/ 8  
27.5N 80.2W 71 N/A 3/ 7 2/11  
 

 
FLZ050-056-061-142-242-148-248-149-249-151-251-155-255-  
160-260-242100-  
WEST CENTRAL FLORIDA  
 
CITY SKY/WX TMP DP RH WIND PRES REMARKS
 
CRYSTAL RIVER FAIR 73 48 40 W8 30.14F  
INVERNESS FAIR 79 48 34 CALM 30.13F  
BROOKSVILLE SUNNY 76 44 32 W12 30.14F  
CLEARWATER AIR N/A 72 50 46 NW7 30.14F  
ST PETE CLEARW SUNNY 76 44 32 W9 30.14S  
TAMPA INTL MOSUNNY 76 45 33 W9 30.13F  
TAMPA EXEC SUNNY 81 59 47 SW9 30.13S  
PLANT CITY MOSUNNY 81 63 54 W10 30.13F  
MACDILL AFB SUNNY 75 46 35 NW10 30.11S  
PETER O KNIGHT CLOUDY 77 48 36 NW7 30.13F  
ST PETERSBURG SUNNY 75 50 41 W10 30.11F  
SARASOTA SUNNY 75 52 44 W13 30.11F  
VENICE FAIR 72 61 68 NW14 30.13F  
 
STATION/POSITION SKY/WX TEMP WIND PRES WAVE SWELL
 
AIR SEA DIR/SP/G HT/PER HT/PER  
(F) (DEG/KT/KT) (MB) (FT/S) (FT/S)  
27.3N 84.3W 70 N/A 1/ 5  
CLEARWATER BEACH 65 70 320/ 7/ 9 1021.2F  
MIDDLE TAMPA BAY 68 310/ 11/ 13 1020.3F  
VENICE 69 71 310/ 11/ 12 1020.0F  
 

 
FLZ066-069-070-075>078-162-262-165-265-242100-  
SOUTHWEST FLORIDA AND KEYS  
 
CITY SKY/WX TMP DP RH WIND PRES REMARKS
 
PUNTA GORDA SUNNY 82 66 58 SW13 30.12S  
FT MYERS SUNNY 81 69 67 W12G21 30.09F  
SOUTHWEST INTL MOSUNNY 82 65 56 W10 30.10S  
NAPLES SUNNY 77 68 73 W12 30.10F  
MARCO ISLAND SUNNY 80 69 69 W8 30.11F  
IMMOKALEE FAIR 84 66 54 SW6 30.08S  
MARATHON FAIR 81 71 71 CALM 30.09F  
KEY WEST NAS FAIR 81 70 69 SE5 30.09F  
KEY WEST INTL MOSUNNY 80 68 66 CALM 30.10F  
 
STATION/POSITION SKY/WX TEMP WIND PRES WAVE SWELL
 
AIR SEA DIR/SP/G HT/PER HT/PER  
(F) (DEG/KT/KT) (MB) (FT/S) (FT/S)  
NAPLES 79 75 250/ 7/ 8 1020.4F  
26.0N 85.6W 73 1020.6F 2/ 5  
DRY TORTUGAS NOT AVBL  
SAND KEY 76 350/ 5/ 6 1019.6F  
 

 
FLZ067-068-071>074-168-172>174-242100-  
SOUTHEAST FLORIDA  
 
CITY SKY/WX TMP DP RH WIND PRES REMARKS
 
W PALM BEACH PTSUNNY 79 65 62 E7 30.11F  
BOCA RATON SUNNY 79 68 69 SE12 30.10F  
FT LAUDER-EXEC PTSUNNY 76 68 76 E15 30.10F  
FT LAUDERDALE RAIN 75 69 81 SE10 30.11S  
POMPANO BEACH PTSUNNY 77 71 82 E14 30.10F  
PEMBROKE PINES CLOUDY 73 69 87 NE9 30.12F  
OPA LOCKA CLOUDY 75 69 81 SE8 30.10F  
MIAMI PTSUNNY 76 71 85 SE8 30.10F  
WEST KENDALL CLOUDY 79 67 66 S7 30.10F  
HOMESTEAD CLOUDY 75 70 83 E5 30.09F  
 
STATION/POSITION SKY/WX TEMP WIND PRES WAVE SWELL
 
AIR SEA DIR/SP/G HT/PER HT/PER  
(F) (DEG/KT/KT) (MB) (FT/S) (FT/S)  
VIRGINIA KEY 73 77 90/ 1/ 3 1020.0F  
LAKE WORTH 75 75 150/ 9/ 11 1019.1F  
FOWEY ROCKS 73 76 350/ 8/ 8 1019.7F  
SETTLEMENT POINT 73 80/ 11/ 12 1020.3F  
 

 
 
 
 
CLICK HERE TO GO TO PREVIOUS BULLETINS.

The Nexlab FL Page Main Text Page